Погода в Каанааке

Гренландия     77°29′11″N   69°19′23″W
темп.,
°C
ветер,
м/с
пор.,
м/с
влажн.,
%
обл.,
%
осадки,
мм/ч
давл.,
гПа
погр.,
м
8 мая, сб
сб801:00−6в469599 0.1 1022155
04:00−7в239798 0.5 102272
07:00−7ююв119697 0.5 102467
10:00−7вюв119499 0.7 1025106
13:00−5вюв128792 0.1 1025303
16:00−5вюв118056 0.3 1025329
19:00−5с018293 0.0 1026247
22:00−6с119090 0.1 102613
9 мая, вс
вс901:00−7ссз119698 0.4 102613
04:00−8зсз009691 0.7 102610
07:00−9зюз009787 0.2 102621
10:00−7юз119479 0.3 102592
13:00−7зюз219278 0.1 1024168
16:00−7зюз229178 0.1 1023200
19:00−7з229346 0.0 102362
22:00−10ссз229546 0.1 102210
10 мая, пн
пн1001:00−12ссв229486 0.0 102210
04:00−12св229591 0.1 102114
07:00−12св349255 0.1 102138
10:00−11всв358775 0.1 1020125
13:00−9всв238177 0.0 1020150
16:00−8св017668 0.0 1019172
19:00−9з118475 0.0 101922
22:00−11с118886 0.0 101810
11 мая, вт
вт1101:00−13ссв228891 0.0 101810
04:00−13св3388100 0.0 101814
07:00−12всв2391100 0.0 101941
10:00−10в3491100 0.1 1019187
13:00−9в3384100 0.1 1018236
16:00−8в2279100 0.1 1018240
19:00−7вюв1178100 0.1 1017294
22:00−8юз0087100 0.3 101771
12 мая, ср
ср1201:00−9ююв0092100 0.3 101710
04:00−9в2294100 0.6 101724
07:00−9в3494100 0.3 1017183
10:00−8в3493100 0.6 1017253
13:00−7в3385100 0.1 1017335
16:00−6в3378100 0.1 1016394
19:00−6всв2378100 0.0 1016302
22:00−7св3286100 0.0 101725